Regional Weather Roundup
Issued by NWS

Home | Current Version | Previous Version | Graphics & Text | Print | Product List | Glossary Off
Versions: 1 2 3 4 5 6 7 8 9 10 11 12 13 14 15 16 17 18 19 20 21 22 23 24 25 26 27 28 29 30 31 32 33 34 35 36 37 38 39 40 41 42 43 44 45 46 47 48 49 50

000
ASUS43 KMKX 020500
RWRWI

WISCONSIN REGIONAL WEATHER ROUNDUP
NATIONAL WEATHER SERVICE MILWAUKEE/SULLIVAN WI
1200 AM CDT TUE SEP 02 2014

NOTE: "FAIR" INDICATES FEW OR NO CLOUDS BELOW 12,000 FEET WITH NO
SIGNIFICANT WEATHER AND/OR OBSTRUCTIONS TO VISIBILITY.

WIZ001-002-006>008-014>016-023>028-020600-
NORTHWEST WISCONSIN

CITY           SKY/WX    TMP DP  RH WIND       PRES   REMARKS
SUPERIOR ARPT  CLOUDY    57  54  89 SW3       29.76R
ASHLAND        CLEAR     57  52  83 SW7       29.77R
HAYWARD        PTCLDY    53  52  96 CALM      29.79S
SIREN          MOCLDY    58  56  94 NW9       29.81R
RICE LAKE      CLEAR     56  55  95 CALM      29.82S
LADYSMITH      PTCLDY    59  55  87 SW3       29.82R
EAU CLAIRE     NOT AVBL
MENOMONIE      CLEAR     61  58  87 CALM      29.82R
NEW RICHMOND   PTCLDY    59  58  97 CALM      29.81F
OSCEOLA        PTCLDY    56  56 100 CALM      29.82F
$$

WIZ003>005-009-010-017-018-020600-
NORTH CENTRAL WISCONSIN

CITY           SKY/WX    TMP DP  RH WIND       PRES   REMARKS
WOODRUFF       CLEAR     59  55  87 CALM      29.79S
RHINELANDER    CLEAR     53  52  96 W5        29.81R
EAGLE RIVER      N/A     52  52 100 CALM      29.78S FOG
LAND O LAKES   CLEAR     55  53  92 W3        29.79S
PHILLIPS       PTCLDY    56  53  90 CALM      29.80R
TOMAHAWK       CLEAR     52  50  93 CALM      29.81R
MEDFORD        CLEAR     55  54  94 CALM      29.82R
MERRILL        CLEAR     55  54  95 W3        29.80S
$$

WIZ029-030-035-036-043>047-020600-
CENTRAL WISCONSIN

CITY           SKY/WX    TMP DP  RH WIND       PRES   REMARKS
WAUSAU         CLEAR     60  56  86 NW3       29.81R
MOSINEE        CLEAR     59  55  88 W6        29.82R
MARSHFIELD     PTCLDY    59  55  87 W6        29.83R
STEVENS POINT  CLEAR     61  57  86 CALM      29.82R
WAUPACA        CLEAR     62  59  90 CALM      29.82R
WAUTOMA        CLEAR     59  59 100 CALM      29.84R FOG
WISC RAPIDS    CLEAR     57  56  96 CALM      29.84R FOG
CAMP DOUGLAS   FOG       55  55 100 E1        29.85R VSB 3/4
$$

WIZ011>013-019>022-031-037>040-048>050-020600-
NORTHEAST WISCONSIN

CITY           SKY/WX    TMP DP  RH WIND       PRES   REMARKS
ANTIGO         CLEAR     55  53  92 W3        29.81R
STURGEON BAY   CLEAR     64  57  77 W6        29.79R
GREEN BAY      CLEAR     62  59  90 W6        29.81R
MANITOWOC      NOT AVBL
APPLETON       CLEAR     61  61 100 SW5       29.82R
CLINTONVILLE   CLEAR     61  57  88 W5        29.81R
OSHKOSH        CLEAR     65  62  90 SW6       29.83R
$$

WIZ032>034-041-042-053>061-020600-
SOUTHWEST WISCONSIN

CITY           SKY/WX    TMP DP  RH WIND       PRES   REMARKS
LA CROSSE      PTCLDY    63  60  90 SE3       29.84R
SPARTA         CLEAR     58  57  96 CALM      29.84R
VIROQUA        FAIR      61  59  93 SW3       29.86R
BOSCOBEL       PTCLDY    63  60  90 CALM      29.86R FOG
PRAIRIE DU CHI CLEAR     63  60  91 CALM      29.85R
PLATTEVILLE    FAIR      66  63  89 CALM      29.87R
$$

WIZ056-057-062-063-064-067-068-020600-
SOUTH CENTRAL WISCONSIN

CITY           SKY/WX    TMP DP  RH WIND       PRES   REMARKS
BARABOO/DELLS  MOCLDY    63  60  90 SW3       29.84S
LONE ROCK      NOT AVBL
WATERTOWN      PTCLDY    61  61 100 CALM      29.84R
MADISON        CLOUDY    65  60  84 CALM      29.85R
MIDDLETON      FAIR      63  62  96 CALM      29.85S
MONROE         CLOUDY    64  63  94 SW5       29.86S
JANESVILLE     CLOUDY    68  64  88 CALM      29.84F
$$

WIZ051-052-058>065-066-070>072-020600-
SOUTHEAST WISCONSIN

CITY           SKY/WX    TMP DP  RH WIND       PRES   REMARKS
MILWAUKEE      MOCLDY    69  63  81 W5        29.84R
WAUKESHA       PTCLDY    64  61  88 SW3       29.86R
MILWAUKEE/TIMM CLEAR     63  59  88 SW3       29.84R
RACINE         PTCLDY    68  65  90 W5        29.85R
BURLINGTON     PTCLDY    63  62  98 SW3       29.85R
KENOSHA        PTCLDY    67  65  93 CALM      29.85R
FOND DU LAC    CLEAR     63  60  90 SW7       29.84R
SHEBOYGAN      CLEAR     61  59  93 W3        29.82R
WEST BEND      CLEAR     61  57  88 SW5       29.83S
JUNEAU           N/A     61  61  99 SW3       29.85R FOG
$$

LSZ147-162-020600-
LAKE SUPERIOR

STATION/POSITION TIME  TEMP    WIND        PRES    WAVE
                       AIR SEA DIR/SP/G            HT/PER
                 (UTC) (F)     (DEG/KT/KT) (MB)    (FT/S)
W MID LAKE BUOY  0350   61 57  250/ 10/ 12 1005.6R   1/ 4
DEVILS ISLAND    0400   62     270/ 10/ 12 1006.8R
PORT WING        0400   60     190/  6/  8 1007.5S
SAXON HARBOR     0440   60     190/  7/  9 1007.5S
$$

LMZ867-665-643>646-020600-
LAKE MICHIGAN

STATION/POSITION TIME  TEMP    WIND        PRES    WAVE
                       AIR SEA DIR/SP/G            HT/PER
                 (UTC) (F)     (DEG/KT/KT) (MB)    (FT/S)
N MID LAKE BUOY  0350   66 65  240/  4/  4 1007.0R   2/ 6
NORTHPORT PIER   0400   66     270/  2/  5 1007.5R
KEWAUNEE LAKESHO 0400   66     290/  3/  5 1007.5R
SHEBOYGAN LAKESH 0400   66 48  240/  6/  7 1009.3R
ATWATER BUOY     0400   67     270/  6/  8 1010.9R
MILWAUKEE LAKESH 0400   71     280/  6/  8   N/A
S MID LAKE BUOY  0350   71 70  240/  8/ 10 1009.5R   2/ 4
KENOSHA   LAKESH 0400   70     260/  7/  9 1010.2R
$$

TC  - TEMPERATURE IN CELSIUS
VSB - VISIBILITY IN STATUTE MILES
WCI - WIND CHILL INDEX
HX  - HEAT INDEX




USA.gov is the U.S. government's official web portal to all federal, state and local government web resources and services.